DECAYED

STARLINK-1834, 46781 (Decayed)

Orbit data source: Space-Track

STARLINK-1834, 46781 was a payload satellite owned by SpaceX/Seattle (US) in LEO that was launched on Sat, 24 Oct 2020 UTC via an FALCON 9 launch vehicle from the Air Force Eastern Test Range (AFETR). Payload-class satellites include a variety of spacecraft equipped with specific instruments for various scientific and technological missions. These include communications satellites like Starlink; space stations such as the ISS; scientific satellites like the Hubble; Earth observation satellites from companies like Planet Labs, Umbra, and HawkEye 360; GPS; miniature CubeSats for education and research; and military/defense satellites.

Not visible in the next 10 days
Identifier
46781, 2020-074AU
Orbit
Decayed
Country
Flag of USUS
Related business
Manufacturer
SpaceX/Seattle
Mission
Decayed Commercial Communications
Bus & Motor
STARLINK, Unknown motor
Mass
260 kg wet, ~248 kg dry
Launch date (UTC)
2020-10-24 (5 years ago)
Launch vehicle
FALCON 9
Launch site
Air Force Eastern Test Range (AFETR)
Object type
Payload
Rocket body
Debris
Shape & HBR
Box + 1 Pan, 10.1 m
Radar Cross Section
13.562 m², Large (>1 m²)

Expand to show TLE details & history
Last TLE update: 10 months ago

TLE from 10 months ago
0 STARLINK-1834
1 46781U 20074AU  25049.76472444  .10531164  12349-4  10569-2 0  9994
2 46781  53.0338 206.1565 0008056 298.7193 199.2178 16.37178269239082
Epoch: 2025-02-18T18:21Z
TLE epoch observation values (Epoch: 2025-02-18T18:21:12.191Z)
Latitude
32.4923°
Longitude
-66.57107°
Altitude
180.407 km
Speed
7.8 km/s
True Right ascension
23h 50m 46s
True Declination
32° 19' 23"
Sunlit
Object was in daylight at epoch
Visualization orbit readout
Latitude
Unknown
Longitude
Unknown
Altitude
Unknown
Speed
Unknown
Apparent Right ascension
Unknown
Apparent Declination
Unknown
Sunlit
N/A
Visualization observer readout
Local Sidereal Time
04:34:23
Azimuth
Unknown
Elevation
Unknown
Doppler factor
Unknown
Orbital elements
Apogee altitude
178.887 km
Perigee altitude
168.331 km
Semi-major axis
6,551.746 km
Eccentricity
0.00081
Inclination
53.0338°
RAAN
206.1565°
Arg. of periapsis
298.7193°
True anomaly
199.18744°
Mean anomaly
199.2178°
Eccentric anomaly
199.20262°
Mean motion
4.09268 °/min
Orbital period
87.96 mins
BSTAR
0.0010569
Loading maneuver chart data...
Computing Atmospheric mass density...

Documentation

Showing up to 5 results
|